User: anonymous   Login
Location: Unspecified
(0.0000°N, 0.0000°E)
Time: 17:19:23
(UTC+00:00)
Language:

MOS 1-B - Orbit

View from above orbital plane
View from above orbital plane
View from above satellite
View from above satellite

Ground track
Ground track

The orbit data is extracted from the following two-line orbital elements,

1 20478U 90013A   19016.52221427  .00000189  00000-0  17335-3 0  9996
2 20478  99.3737 357.3754 0005243 341.4045  18.6923 13.95469880394402
Epoch (UTC): 16 January 2019 12:31:59
Eccentricity: 0.0005243
inclination: 99.3737°
perigee height: 906 km
apogee height: 913 km
right ascension of ascending node: 357.3754°
argument of perigee: 341.4045°
revolutions per day: 13.95469880
mean anomaly at epoch: 18.6923°
orbit number at epoch: 39440

The dashed part of the orbit path shows where the satellite is in the earth's shadow,  

DLR